Tracking 22458 objects as of 2-Mar-2021
HD Live streaming from Space Station
objects crossing your sky now

RFTSAT

Track RFTSAT now!
10-day predictions


NORAD ID: 44417
Int'l Code: 2019-022G
Perigee: 470.2 km
Apogee: 486.4 km
Inclination: 51.6 °
Period: 94.0 minutes
Semi major axis: 6849 km
RCS: Unknown
Launch date: April 17, 2019
Source: United States (US)
Launch site: WALLOPS ISLAND (WLPIS)
aabbcc
Your satellite tracking list
Your tracking list is empty




NASA's NSSDC Master Catalog

Two Line Element Set (TLE):
1 44417U 19022G   21060.76981036  .00002868  00000-0  10454-3 0  9994
2 44417  51.6401 234.8585 0011780 156.2360 203.9167 15.31557713 87690
Source of the keplerian elements: AFSPC